Date,TemperatureHighF,TemperatureAvgF,TemperatureLowF,DewpointHighF,DewpointAvgF,DewpointLowF,HumidityHigh,HumidityAvg,HumidityLow,PressureMaxIn,PressureMinIn,WindSpeedMaxMPH,WindSpeedAvgMPH,GustSpeedMaxMPH,PrecipitationSumIn
2013-1-1,32.0,26.8,21.2,30.8,23.3,16.3,98,86,74,29.97,29.85,5,1,0,0.00
2013-1-2,27.1,22.5,19.9,20.2,17.5,14.7,89,81,73,30.09,29.94,5,2,0,0.00
2013-1-3,28.2,23.5,15.1,25.9,19.7,12.5,95,85,68,30.11,29.96,10,4,0,0.00
2013-1-4,34.0,28.2,25.5,25.6,22.0,18.3,94,78,61,30.09,29.93,18,5,0,0.00
2013-1-5,33.1,28.9,26.1,27.7,24.9,22.7,92,85,75,30.25,30.00,12,4,0,0.00
2013-1-6,37.2,33.6,32.4,33.5,31.3,27.6,98,92,79,30.08,29.84,10,4,0,0.01
2013-1-7,34.7,31.4,27.7,31.9,28.6,25.9,98,90,76,30.34,30.09,10,3,0,0.00
2013-1-8,40.1,30.1,24.8,28.7,25.3,23.3,95,84,62,30.21,30.13,8,4,0,0.03
2013-1-9,32.2,30.8,28.9,29.1,28.5,27.3,94,91,87,30.17,30.12,4,2,0,0.00
2013-1-10,42.1,26.5,20.3,33.4,24.6,19.8,98,93,71,30.51,30.38,0,0,0,0.00
2013-1-11,48.6,44.6,41.9,48.1,41.4,30.0,98,89,62,30.05,29.77,10,5,0,0.36
2013-1-12,59.5,52.3,44.6,56.8,51.4,44.1,98,97,88,29.94,29.84,11,4,0,0.00
2013-1-13,65.3,55.9,40.3,61.1,54.4,39.8,98,95,83,29.83,29.68,13,4,0,0.13
2013-1-14,39.6,30.9,26.8,39.1,28.3,23.4,98,90,76,30.34,29.87,6,2,0,0.16
2013-1-15,32.5,27.6,25.2,24.8,22.9,20.5,91,83,67,30.34,30.02,5,1,0,0.00
2013-1-16,36.3,31.0,26.2,32.1,26.8,24.5,98,85,69,30.02,29.75,8,2,0,0.00
2013-1-17,36.1,31.3,23.0,31.4,27.5,17.7,98,86,75,30.11,29.86,12,2,0,0.00
2013-1-18,33.1,24.0,17.2,20.9,15.5,8.5,83,70,59,30.38,30.00,18,5,0,0.00
2013-1-19,50.7,41.1,34.3,34.4,27.3,21.3,65,58,49,30.00,29.59,16,8,0,0.00
2013-1-20,46.6,28.2,20.3,35.6,20.8,13.8,89,74,58,30.03,29.52,19,4,0,0.00
2013-1-21,24.6,18.7,10.9,18.0,14.1,4.8,96,82,57,30.00,29.79,7,2,0,0.00
2013-1-22,10.4,8.0,6.4,5.3,2.3,-0.2,90,77,68,30.11,29.90,6,2,0,0.00
2013-1-23,17.6,11.4,6.4,12.0,7.1,4.1,91,83,75,30.12,29.99,5,1,0,0.00
2013-1-24,22.8,14.4,6.3,11.8,8.3,4.0,95,78,51,30.46,29.96,11,2,0,0.00
2013-1-25,21.0,12.1,4.6,13.7,8.3,2.0,94,85,72,30.42,29.93,6,1,0,0.00
2013-1-26,32.7,21.0,13.5,25.7,18.4,12.1,98,90,73,30.35,29.97,4,1,0,0.00
2013-1-27,34.2,25.3,18.0,26.3,19.1,17.1,98,78,59,30.43,30.21,6,2,0,0.00
2013-1-28,43.7,37.6,26.6,43.2,37.1,26.1,98,98,98,30.19,29.81,11,5,0,1.89
2013-1-29,58.8,47.2,35.4,56.0,46.4,34.9,98,97,88,29.96,29.59,14,3,0,0.46
2013-1-30,62.8,57.5,39.2,58.4,54.8,38.7,98,91,80,29.58,29.02,14,7,0,0.39
2013-1-31,37.9,25.5,17.8,37.4,22.9,16.6,98,90,75,29.71,29.11,10,4,0,0.12
2013-2-1,17.6,14.8,12.4,17.1,11.5,6.6,98,87,76,30.17,29.69,8,3,0,0.00
2013-2-2,19.9,15.5,10.4,19.3,12.2,4.3,98,86,75,30.17,29.85,13,4,0,0.00
2013-2-3,24.8,17.8,14.0,19.8,15.8,11.8,98,92,73,29.85,29.71,8,2,0,0.00
2013-2-4,28.9,20.1,14.9,21.1,16.7,10.1,98,87,70,29.91,29.77,7,0,0,0.00
2013-2-5,37.4,24.0,16.7,24.4,20.1,16.2,98,86,59,29.82,29.73,5,0,0,0.00
2013-2-6,39.7,23.6,7.7,26.3,18.2,6.8,98,82,49,30.26,29.81,6,1,0,0.04
2013-2-7,44.6,29.7,7.7,30.3,21.8,6.8,96,74,52,30.23,29.82,9,2,0,0.17
2013-2-8,34.9,28.5,18.0,34.4,26.5,15.1,98,92,65,30.12,29.65,14,5,0,0.37
2013-2-9,38.3,20.6,10.9,23.6,16.2,9.3,97,84,55,30.32,30.12,8,1,0,0.12
2013-2-10,48.4,32.7,10.2,27.8,19.9,8.6,94,62,33,30.26,29.76,10,3,0,0.01
2013-2-11,51.1,39.3,32.4,46.2,35.2,27.2,98,85,58,29.76,29.54,11,5,0,0.00
2013-2-12,32.5,30.2,24.6,29.3,26.8,23.9,98,87,79,29.95,29.77,8,2,0,0.01
2013-2-13,39.9,29.4,22.5,30.7,26.4,22.0,98,89,65,29.83,29.63,5,1,0,0.00
2013-2-14,37.9,30.7,20.8,36.9,29.6,20.3,98,96,83,29.79,29.69,10,4,0,0.08
2013-2-15,36.1,30.8,23.4,31.9,25.8,17.3,93,81,67,30.00,29.75,12,2,0,0.01
2013-2-16,30.7,22.3,11.5,22.9,14.6,7.6,92,73,46,29.99,29.84,9,1,0,0.02
2013-2-17,23.0,17.3,8.8,18.2,13.2,5.2,98,84,70,30.14,29.84,9,2,0,0.00
2013-2-18,43.7,35.6,2.7,32.3,23.5,0.7,91,61,55,30.15,29.70,10,5,0,0.00
2013-2-19,45.9,32.3,18.0,39.6,29.8,16.4,98,91,62,29.79,29.49,25,6,0,0.37
2013-2-20,18.5,16.3,15.3,17.1,14.9,13.9,96,94,93,29.83,29.79,7,4,0,0.00
2013-2-21,16.5,9.5,9.3,13.5,-13.1,-99.9,96,74,91,29.93,29.88,0,-214,0,0.00
2013-2-22,34.7,27.3,9.0,34.2,25.3,7.6,98,92,76,29.89,29.67,11,4,0,0.11
2013-2-23,37.8,32.9,28.0,34.8,30.3,25.2,98,90,70,29.79,29.72,7,2,0,0.01
2013-2-24,34.7,28.5,25.3,27.3,25.1,21.4,98,87,73,30.03,29.75,6,1,0,0.00
2013-2-25,42.3,30.0,19.2,29.4,24.3,18.7,98,81,56,30.11,29.95,7,1,0,0.00
2013-2-26,36.7,31.9,24.6,36.0,30.0,21.8,98,93,79,29.99,29.45,6,2,0,0.62
2013-2-27,41.0,36.1,32.5,40.0,35.5,32.0,98,98,95,29.58,29.42,8,3,0,0.51
2013-2-28,35.1,32.8,30.4,34.6,32.2,29.9,98,98,96,29.83,29.52,5,2,0,0.09
2013-3-1,30.2,26.9,23.5,29.7,25.3,21.5,98,94,87,29.99,29.82,6,2,0,0.00
2013-3-2,25.2,23.5,21.7,23.6,21.8,20.0,98,93,85,29.98,29.94,6,2,0,0.00
2013-3-3,30.0,23.8,20.5,26.0,21.6,18.0,98,91,76,30.00,29.92,6,2,0,0.00
2013-3-4,36.3,23.0,11.3,24.6,19.0,9.7,98,85,61,30.09,29.99,7,1,0,0.02
2013-3-5,40.5,26.5,15.3,30.4,23.1,14.5,98,88,66,30.11,29.74,5,1,0,0.10
2013-3-6,41.2,32.5,24.3,33.1,29.4,23.1,98,89,68,30.12,29.74,6,2,0,0.00
2013-3-7,38.1,32.9,30.0,37.6,32.3,28.7,98,98,94,30.29,30.11,5,1,0,0.00
2013-3-8,43.5,33.2,26.2,35.1,30.4,25.7,98,90,59,30.38,30.28,10,2,0,0.00
2013-3-9,57.0,38.5,24.1,38.7,30.8,23.6,98,77,41,30.37,30.06,6,1,0,0.00
2013-3-10,67.3,55.3,44.6,44.7,36.5,28.6,58,50,41,30.06,29.85,13,5,0,0.00
2013-3-11,60.1,54.2,43.3,48.1,41.2,37.0,98,63,47,29.84,29.52,21,5,0,1.06
2013-3-12,43.0,36.4,32.2,42.5,34.2,26.6,98,92,79,29.89,29.65,8,2,0,0.14
2013-3-13,36.3,30.6,25.7,30.4,27.2,17.7,98,87,64,30.01,29.80,11,3,0,0.00
2013-3-14,32.5,26.6,19.9,23.0,19.4,17.2,96,74,64,30.13,30.01,7,2,0,0.02
2013-3-15,35.6,31.4,20.5,35.1,28.9,19.3,98,91,78,30.01,29.77,10,2,0,0.16
2013-3-16,36.9,29.5,23.0,33.4,28.1,22.3,98,95,87,29.94,29.64,5,1,0,0.00
2013-3-17,40.8,28.1,17.8,25.9,22.2,15.6,98,80,50,30.19,29.94,8,2,0,0.08
2013-3-18,35.4,29.6,18.7,34.9,26.9,15.7,98,90,75,30.15,29.55,15,5,0,0.44
2013-3-19,35.4,30.0,25.0,34.9,27.7,22.1,98,91,74,29.85,29.61,14,3,0,0.14
2013-3-20,38.5,27.4,20.5,29.0,21.8,15.2,98,80,62,29.85,29.79,6,2,0,0.01
2013-3-21,33.8,24.1,11.3,27.3,21.6,10.4,98,91,64,29.80,29.74,5,1,0,0.00
2013-3-22,34.0,27.4,24.4,26.9,24.3,21.9,98,88,73,29.96,29.78,0,0,0,0.01
2013-3-23,45.7,30.3,21.4,31.9,25.7,20.9,98,84,57,30.02,29.93,3,0,0,0.24
2013-3-24,39.2,27.8,13.6,29.2,22.9,13.1,98,83,62,29.99,29.52,10,2,0,0.07
2013-3-25,38.7,33.0,28.6,36.8,31.6,26.4,98,94,85,29.74,29.45,7,2,0,0.20
2013-3-26,41.2,34.8,30.0,36.5,32.7,29.5,98,92,80,30.02,29.74,7,1,0,0.01
2013-3-27,39.9,34.8,31.6,34.4,32.1,30.4,98,90,74,30.10,30.00,7,1,0,0.00
2013-3-28,41.0,34.7,31.3,38.0,33.4,30.8,98,95,86,30.22,30.08,3,0,0,0.43
2013-3-29,52.5,39.1,27.5,38.9,32.4,26.2,98,79,46,30.21,30.14,6,1,0,0.00
2013-3-30,54.9,39.1,24.6,34.9,29.3,24.1,98,72,43,30.20,29.97,9,1,0,0.00
2013-3-31,53.6,45.8,40.1,48.4,37.3,27.7,98,74,52,29.96,29.59,17,5,0,0.02
2013-4-1,45.7,35.0,28.8,44.3,27.4,19.5,98,75,52,30.00,29.60,11,3,0,0.25
2013-4-2,38.7,30.3,24.8,23.6,19.3,15.8,76,64,48,30.14,29.99,7,2,0,0.00
2013-4-3,34.5,28.8,19.8,25.1,20.0,16.8,90,70,56,30.41,30.14,9,1,0,0.00
2013-4-4,55.4,35.5,18.7,25.0,18.4,9.9,93,58,20,30.36,29.92,9,2,0,0.00
2013-4-5,44.8,35.2,26.1,34.9,27.4,22.0,87,73,58,30.16,29.87,9,2,0,0.00
2013-4-6,55.6,38.2,18.0,29.0,22.0,16.6,98,60,23,30.26,29.90,9,2,0,0.00
2013-4-7,70.0,54.3,36.3,51.8,39.1,22.3,98,59,32,30.00,29.74,14,5,0,0.00
2013-4-8,71.4,53.2,29.1,56.9,44.4,28.6,98,75,50,30.04,29.77,18,4,0,0.00
2013-4-9,74.5,57.3,42.1,59.0,49.9,41.6,98,79,53,30.11,29.80,8,2,0,0.00
2013-4-10,59.0,47.5,40.3,58.4,46.9,39.8,98,98,93,29.94,29.79,11,1,0,2.11
2013-4-11,46.9,41.3,36.5,46.4,40.8,36.0,98,98,98,29.95,29.60,9,2,0,0.18
2013-4-12,58.3,45.6,39.6,57.7,44.4,36.5,98,96,86,29.79,29.42,8,3,0,0.38
2013-4-13,43.9,39.4,34.0,41.6,36.8,33.5,98,91,70,29.96,29.79,8,2,0,0.26
2013-4-14,50.0,41.7,33.4,40.7,36.7,32.2,98,83,68,30.12,29.97,5,1,0,0.00
2013-4-15,73.8,60.2,45.3,54.2,48.4,38.0,80,66,50,30.04,29.93,14,6,0,0.00
2013-4-16,65.3,55.9,48.9,63.4,53.6,48.4,98,92,77,30.19,29.94,11,4,0,0.22
2013-4-17,60.6,51.3,40.6,48.4,43.2,39.1,98,76,51,30.30,30.05,7,2,0,0.00
2013-4-18,84.0,71.1,46.8,66.7,60.6,42.7,95,72,50,30.08,29.64,18,7,0,0.00
2013-4-19,70.0,55.2,40.5,63.7,48.7,31.5,98,80,68,29.78,29.36,16,5,0,0.46
2013-4-20,40.3,36.8,34.7,34.7,32.2,27.5,98,84,60,30.28,29.78,9,4,0,0.01
2013-4-21,42.8,36.9,30.9,32.6,29.1,27.7,90,73,63,30.52,30.48,7,1,0,0.00
2013-4-22,67.8,50.0,30.0,43.2,34.5,27.3,97,57,37,30.47,30.23,9,2,0,0.00
2013-4-23,71.8,57.2,40.8,46.2,39.6,31.5,80,54,37,30.25,29.88,11,4,0,0.00
2013-4-24,63.5,53.8,37.6,57.4,47.2,37.1,98,81,44,29.87,29.67,13,5,0,0.74
2013-4-25,52.0,42.8,33.6,43.6,38.9,33.1,98,88,53,30.31,30.14,12,2,0,0.10
2013-4-26,59.2,44.9,29.1,44.8,35.4,28.6,98,73,45,30.47,30.31,7,1,0,0.01
2013-4-27,72.5,54.2,35.6,48.7,40.8,33.9,98,65,33,30.39,30.12,6,1,0,0.00
2013-4-28,63.0,55.7,52.2,55.7,49.3,40.8,98,81,59,30.12,29.88,13,3,0,0.28
2013-4-29,64.4,56.1,50.9,61.7,55.3,50.4,98,97,91,29.98,29.87,9,3,0,0.22
2013-4-30,74.7,63.4,52.5,62.2,56.7,52.0,98,81,56,30.14,29.99,10,3,0,0.01
2013-5-1,83.1,66.6,54.9,59.2,55.0,47.9,98,70,39,30.29,30.15,9,2,0,0.00
2013-5-2,82.2,66.8,54.1,54.3,42.4,32.0,61,44,18,30.34,30.18,9,2,0,0.00
2013-5-3,74.5,60.4,54.9,49.2,43.9,39.1,64,55,37,30.22,30.16,8,3,0,0.00
2013-5-4,76.3,63.2,50.0,47.7,44.7,39.5,87,55,28,30.18,30.07,7,2,0,0.00
2013-5-5,79.9,66.0,48.4,48.2,40.2,31.2,90,45,18,30.14,29.99,6,1,0,0.00
2013-5-6,73.9,62.3,49.1,54.2,43.5,31.4,83,52,35,30.06,29.97,8,1,0,0.00
2013-5-7,77.5,64.9,51.4,61.8,57.2,50.9,98,78,52,30.04,29.95,6,1,0,0.00
2013-5-8,69.8,60.1,53.2,64.0,57.8,52.6,98,93,72,29.99,29.92,5,0,0,0.19
2013-5-9,53.4,53.4,53.4,52.0,52.0,52.0,95,95,95,29.93,29.93,0,0,0,0.00
2013-5-10,74.7,61.8,54.0,65.9,57.8,47.7,98,87,69,29.94,29.72,11,3,0,2.62
2013-5-11,59.0,48.4,43.3,58.4,47.9,42.8,98,98,98,29.80,29.73,6,1,0,0.08
2013-5-12,48.9,42.0,34.7,43.7,37.2,34.2,98,85,58,29.94,29.80,4,1,0,0.01
2013-5-13,52.9,41.3,31.8,35.2,32.4,28.6,98,72,50,30.15,30.00,5,1,0,0.01
2013-5-14,31.1,31.1,31.1,30.6,30.6,30.6,98,98,98,30.15,30.15,0,0,0,0.00
2013-5-15,83.7,73.7,53.6,67.7,57.9,53.0,98,61,40,29.77,29.65,6,1,0,0.00
2013-5-16,82.4,61.0,46.8,56.8,49.4,46.1,98,73,31,29.98,29.74,7,1,0,0.00
2013-5-17,73.6,57.8,43.2,54.9,48.6,42.7,98,74,50,30.15,29.98,7,1,0,0.00
2013-5-18,78.4,65.1,52.9,62.2,54.6,48.4,98,71,50,30.15,30.04,7,1,0,0.00
2013-5-19,84.2,71.0,59.5,69.7,64.4,58.7,98,81,57,30.09,29.94,6,2,0,0.00
2013-5-20,88.5,74.1,60.8,72.9,67.5,60.2,98,82,57,30.02,29.83,9,2,0,0.00
2013-5-21,87.8,76.6,65.8,75.1,70.1,65.2,98,83,54,29.90,29.74,10,4,0,0.12
2013-5-22,87.4,76.8,66.7,70.1,67.3,61.6,98,75,51,29.81,29.66,20,4,0,0.00
2013-5-23,72.1,61.3,43.7,68.8,60.4,43.2,98,97,87,29.95,29.71,9,2,0,0.97
2013-5-24,49.8,42.4,34.0,43.0,39.4,33.5,98,89,73,30.26,29.96,7,2,0,0.41
2013-5-25,59.9,46.7,30.2,45.3,38.3,29.7,98,75,49,30.29,30.22,6,1,0,0.00
2013-5-26,67.1,50.1,32.0,46.2,38.5,31.5,98,69,41,30.29,30.22,7,1,0,0.00
2013-5-27,71.4,55.6,35.1,51.8,44.0,34.6,98,69,40,30.26,30.10,9,2,0,0.00
2013-5-28,78.8,64.5,52.0,71.8,63.0,51.5,98,95,77,30.10,29.87,12,2,0,1.69
2013-5-29,85.6,75.3,65.5,72.8,69.0,64.9,98,82,59,30.04,29.91,11,2,0,0.00
2013-5-30,86.4,74.1,66.0,78.0,69.2,13.1,98,86,12,30.16,30.04,5,1,0,0.48
2013-5-31,88.0,73.9,64.2,74.6,68.3,63.6,98,85,53,30.08,29.93,11,3,0,0.63
2013-6-1,85.3,73.2,66.2,77.4,69.8,65.6,98,90,70,29.98,29.75,11,4,0,0.63
2013-6-2,78.1,69.4,58.1,68.8,64.7,57.5,98,86,62,29.91,29.72,9,2,0,1.16
2013-6-3,63.5,54.8,44.2,57.0,49.7,43.7,98,84,57,30.07,29.91,6,2,0,0.00
2013-6-4,69.1,59.4,40.6,54.2,49.5,40.1,98,72,54,30.17,30.06,6,1,0,0.00
2013-6-5,75.2,64.3,45.3,60.7,54.4,44.8,98,72,49,30.16,29.94,9,2,0,0.00
2013-6-6,63.9,59.6,55.0,63.3,59.0,54.4,98,98,95,29.94,29.78,3,0,0,1.14
2013-6-7,60.8,56.9,53.6,60.2,56.3,53.0,98,98,97,29.86,29.81,5,1,0,0.04
2013-6-8,69.4,60.0,50.9,62.1,57.6,50.4,98,92,74,30.10,29.85,4,0,0,0.00
2013-6-9,81.5,65.0,47.5,66.4,58.3,47.0,98,81,56,30.17,30.01,4,0,0,0.00
2013-6-10,74.3,68.9,64.4,73.7,67.8,63.8,98,97,82,30.00,29.70,5,1,0,0.27
2013-6-11,70.9,65.3,60.1,68.8,64.6,59.5,98,98,93,29.87,29.72,5,1,0,0.17
2013-6-12,79.5,68.5,58.6,74.0,66.2,58.0,98,93,79,29.90,29.72,3,0,0,0.01
2013-6-13,68.2,62.8,55.9,67.4,62.1,55.3,98,98,92,29.81,29.41,7,2,0,1.15
2013-6-14,72.0,61.1,50.9,66.0,58.4,50.4,98,92,70,30.05,29.81,4,0,0,0.00
2013-6-15,79.0,63.8,45.5,64.9,56.4,45.0,98,80,54,30.10,29.96,5,0,0,0.00
2013-6-16,80.4,69.6,62.8,71.3,66.4,61.7,98,90,68,29.98,29.78,8,2,0,0.00
2013-6-17,83.3,71.4,59.0,72.1,65.7,58.4,98,84,57,29.96,29.86,7,1,0,0.03
2013-6-18,72.3,63.3,51.1,67.9,60.3,50.6,98,90,68,30.02,29.86,8,2,0,0.36
2013-6-19,72.1,60.2,46.9,57.9,52.4,46.4,98,78,55,30.18,30.01,9,1,0,0.00
2013-6-20,80.8,63.8,47.1,62.2,55.0,46.6,98,76,49,30.23,30.17,6,1,0,0.00
2013-6-21,87.1,71.1,50.4,69.8,61.6,49.9,98,76,50,30.25,30.13,5,0,0,0.00
2013-6-22,88.9,76.6,63.9,75.1,69.3,62.5,97,80,62,30.16,30.01,10,2,0,0.00
2013-6-23,91.4,78.8,68.4,76.1,72.7,67.8,98,83,57,30.11,30.00,7,1,0,0.00
2013-6-24,87.6,79.1,68.4,76.5,72.3,67.8,98,81,61,30.10,29.95,6,1,0,0.00
2013-6-25,86.7,74.4,66.7,76.9,71.4,66.1,98,91,68,30.00,29.85,5,1,0,0.33
2013-6-26,85.3,73.1,66.0,76.1,70.4,65.4,98,92,71,29.90,29.78,6,1,0,0.31
2013-6-27,76.6,69.5,64.9,75.4,68.9,64.3,98,98,96,29.80,29.63,5,1,0,1.69
2013-6-28,77.5,69.0,63.7,73.2,67.1,63.1,98,94,74,29.63,29.47,6,0,0,0.12
2013-6-29,76.3,67.6,62.4,71.9,66.3,61.8,98,96,84,29.68,29.48,6,1,0,1.06
2013-6-30,77.2,67.8,59.9,73.9,66.3,59.3,98,95,79,29.88,29.68,9,1,0,0.00
2013-7-1,70.5,66.1,63.0,69.9,65.5,62.4,98,98,98,30.00,29.85,6,1,0,0.64
2013-7-2,77.9,69.1,61.3,75.7,68.0,60.7,98,96,84,30.06,29.96,6,1,0,0.03
2013-7-3,87.4,75.0,64.8,78.3,71.6,64.2,98,90,66,30.15,30.05,6,2,0,0.05
2013-7-4,82.9,73.9,68.7,78.1,72.1,68.1,98,94,74,30.18,30.11,6,2,0,1.56
2013-7-5,82.8,73.4,68.2,77.6,71.9,67.6,98,95,80,30.14,30.08,8,1,0,0.26
2013-7-6,90.5,75.1,66.9,77.6,71.9,66.3,98,91,61,30.16,30.00,5,1,0,0.12
2013-7-7,80.4,73.8,68.0,76.2,71.6,67.4,98,93,79,30.07,29.97,10,1,0,0.00
2013-7-8,70.2,69.8,69.3,69.6,69.2,68.7,98,98,98,30.04,30.02,2,0,0,0.00
2013-7-10,68.2,61.1,66.7,67.4,51.4,-99.9,98,89,98,29.88,29.86,0,-91,0,2.28
2013-7-11,78.1,67.1,59.4,67.2,63.5,58.8,98,89,60,30.01,29.88,6,1,0,0.01
2013-7-12,85.5,68.8,56.7,72.5,64.0,56.1,98,86,56,30.14,30.02,6,1,0,0.00
2013-7-13,84.7,69.9,58.1,75.3,67.2,57.5,98,92,73,30.23,30.13,5,0,0,0.00
2013-7-14,90.7,77.3,65.5,81.1,73.3,64.9,98,89,68,30.28,30.22,5,1,0,0.00
2013-7-15,90.5,78.9,70.0,82.1,75.5,69.4,98,90,72,30.33,30.25,5,0,0,0.00
2013-7-16,90.5,82.7,72.5,81.9,77.6,71.9,98,85,70,30.28,30.23,5,1,0,0.00
2013-7-17,92.5,80.9,70.5,82.8,76.3,69.9,98,87,65,30.28,30.13,5,0,0,0.00
2013-7-18,93.0,81.8,72.7,83.5,76.9,72.1,98,86,57,30.17,29.98,4,0,0,0.00
2013-7-19,91.4,82.2,73.4,81.2,77.0,70.7,98,85,67,30.00,29.77,8,3,0,0.00
2013-7-20,82.0,72.4,65.7,76.8,70.5,65.1,98,94,71,29.90,29.76,16,1,0,1.98
2013-7-21,84.9,72.8,62.8,74.6,67.8,62.2,98,86,59,29.97,29.90,5,1,0,0.00
2013-7-22,80.4,71.1,60.1,77.1,69.7,59.5,98,95,82,29.97,29.75,3,0,0,0.73
2013-7-23,82.9,71.6,65.3,75.2,69.3,64.7,98,93,75,29.77,29.64,9,1,0,2.26
2013-7-24,71.4,63.6,52.5,61.5,57.5,52.0,98,82,61,30.03,29.80,6,1,0,0.00
2013-7-25,78.1,64.4,49.6,64.9,58.1,49.1,98,82,59,30.10,30.03,7,1,0,0.00
2013-7-26,85.6,71.5,53.2,66.8,61.9,52.6,98,75,44,30.10,29.97,6,1,0,0.00
2013-7-27,71.4,65.6,61.0,69.9,64.9,60.4,98,97,91,29.97,29.79,7,2,0,2.39
2013-7-28,72.3,65.0,59.7,64.7,60.0,56.2,98,85,61,29.99,29.80,6,1,0,0.01
2013-7-29,75.0,63.0,56.5,62.6,58.8,55.9,98,87,60,30.18,29.98,5,1,0,0.00
2013-7-30,75.6,64.3,53.2,67.9,60.7,52.6,98,89,69,30.20,30.15,5,1,0,0.00
2013-7-31,81.1,69.8,56.8,69.4,64.2,56.2,98,84,63,30.15,29.90,7,1,0,0.00
2013-8-1,76.1,69.0,60.6,71.5,67.0,60.0,98,94,77,29.90,29.81,6,1,0,0.52
2013-8-2,77.5,67.4,57.9,67.6,62.4,57.3,98,85,65,29.93,29.85,8,1,0,0.00
2013-8-3,81.3,69.2,59.4,69.2,64.2,58.8,98,86,55,29.97,29.87,7,1,0,0.00
2013-8-4,75.2,64.1,53.8,65.1,60.4,53.2,98,89,69,30.10,29.96,8,1,0,0.00
2013-8-5,72.3,60.6,47.8,64.3,56.7,47.3,98,88,60,30.11,30.01,4,0,0,0.00
2013-8-6,83.1,68.7,57.0,71.1,62.9,56.4,98,84,56,30.01,29.95,4,0,0,0.00
2013-8-7,82.4,71.3,63.0,74.8,69.0,62.4,98,93,75,29.96,29.86,7,3,0,0.14
2013-8-8,83.8,74.1,68.5,79.5,72.8,67.9,98,96,82,29.96,29.89,5,1,0,0.32
2013-8-9,78.6,68.9,57.6,71.5,65.7,57.0,98,90,55,30.00,29.88,5,0,0,0.04
2013-8-10,80.1,68.4,57.4,63.5,61.1,56.8,98,79,54,30.12,30.00,6,1,0,0.00
2013-8-11,79.7,66.8,55.2,65.2,60.6,54.6,98,83,57,30.14,30.02,7,0,0,0.00
2013-8-12,69.8,63.1,58.6,69.2,62.5,58.0,98,98,98,30.07,29.83,4,0,0,0.01
2013-8-13,68.5,63.2,55.4,66.1,58.0,52.5,98,83,73,29.96,29.80,7,2,0,0.04
2013-8-14,69.6,67.6,66.6,58.0,57.1,56.4,72,69,63,30.10,30.08,7,1,0,0.01
2013-8-15,69.3,63.2,55.4,61.5,59.4,54.8,98,88,74,30.15,30.11,3,0,0,0.00
2013-8-16,75.6,68.7,56.5,63.5,61.1,55.9,98,78,62,30.20,30.15,5,1,0,0.00
2013-8-17,81.3,74.7,60.1,67.3,65.2,59.5,98,74,58,30.24,30.20,3,0,0,0.00
2013-8-18,81.9,67.9,54.1,70.9,64.0,53.5,98,88,62,30.23,30.12,3,0,0,0.00
2013-8-19,80.2,68.6,57.9,73.6,65.0,57.3,98,90,64,30.14,30.06,5,0,0,0.00
2013-8-20,83.7,74.8,63.7,70.0,67.2,63.1,98,79,61,30.15,30.11,5,1,0,0.00
2013-8-21,87.1,78.2,63.3,72.5,69.2,62.7,98,77,50,30.15,30.03,4,0,0,0.00
2013-8-22,83.8,72.8,64.0,77.2,69.8,63.4,98,91,76,30.06,29.96,5,1,0,0.00
2013-8-23,82.6,78.5,75.4,69.4,66.2,62.2,74,66,60,30.10,30.08,7,3,0,0.00
2013-8-24,69.1,60.7,56.1,65.1,59.6,55.5,98,96,87,30.31,30.28,0,0,0,0.00
2013-8-25,85.5,68.7,54.3,69.1,60.8,53.7,98,80,50,30.34,30.19,6,0,0,0.00
2013-8-26,88.2,74.6,66.7,73.2,68.0,63.4,98,82,56,30.21,29.96,11,2,0,1.84
2013-8-27,81.0,69.9,66.2,78.8,69.0,65.6,98,97,85,29.97,29.90,4,0,0,0.01
2013-8-28,71.8,70.7,68.0,71.2,70.1,67.4,98,98,98,29.95,29.84,0,0,0,0.45
2013-8-29,84.2,76.4,66.4,77.3,73.0,65.8,98,90,78,30.04,30.00,5,1,0,0.00
2013-8-30,86.0,78.7,66.0,77.0,73.9,65.4,98,86,68,30.02,29.78,6,1,0,0.00
2013-8-31,81.0,73.7,67.3,78.1,72.6,66.7,98,96,85,29.83,29.74,6,1,0,0.00
2013-9-1,84.4,71.8,65.5,79.7,70.7,64.9,98,96,79,29.82,29.73,6,0,0,0.55
2013-9-2,77.5,71.1,67.3,76.9,70.3,66.7,98,97,92,29.77,29.72,6,1,0,0.01
2013-9-4,76.5,66.0,60.4,64.9,61.6,59.8,98,87,64,30.02,30.01,0,0,0,0.00
2013-9-5,71.2,64.5,52.9,61.8,56.0,52.4,98,75,58,30.20,30.01,5,1,0,0.00
2013-9-6,75.0,67.6,58.6,60.6,58.7,56.1,98,75,55,30.16,30.14,2,0,0,0.00
2013-9-7,67.5,67.4,67.3,66.9,66.8,66.7,98,98,98,29.91,29.89,0,0,0,0.00
2013-9-8,73.6,66.6,52.2,67.6,63.0,51.7,98,89,64,30.07,29.87,8,2,0,0.00
2013-9-10,95.5,87.0,79.0,82.8,80.8,78.4,98,83,63,30.06,29.98,7,1,0,0.00
2013-9-11,91.4,80.3,70.0,82.1,77.2,69.4,98,91,66,30.08,29.93,8,1,0,0.20
2013-9-12,75.4,68.9,58.5,73.5,67.5,57.9,98,95,86,29.98,29.79,6,1,0,0.15
2013-9-14,65.7,55.8,47.7,53.2,41.1,-99.9,98,69,58,29.94,29.90,5,-66,0,0.00
2013-9-15,67.3,62.6,57.7,62.2,58.8,56.1,98,88,69,29.90,29.84,4,0,0,0.00
2013-9-16,63.1,57.4,52.9,62.5,56.8,52.4,98,98,97,30.06,29.91,8,1,0,0.00
2013-9-20,78.1,74.8,72.5,75.9,73.9,71.9,98,97,93,29.57,29.52,7,3,0,0.00
2013-9-21,69.8,59.9,53.8,69.2,59.3,53.2,98,98,98,29.61,29.43,4,0,0,1.02
2013-9-22,55.4,53.2,50.7,54.8,52.7,50.2,98,98,98,29.88,29.62,0,0,0,0.09
2013-10-6,-200.0,0.0,200.0,-99.9,-99.9,-99.9,0,0,100,0.00,40.00,0,-999,0,0.00
2013-10-7,59.9,55.0,53.8,57.0,47.4,-99.9,98,81,74,30.09,29.90,10,-24,0,0.53
2013-10-9,67.6,63.3,57.9,56.2,53.4,51.4,79,70,62,30.15,30.13,3,2,0,0.00
2013-10-10,68.0,65.8,61.9,54.5,52.6,51.0,73,62,57,29.97,29.96,4,1,0,0.00
2013-10-11,72.1,69.0,62.6,59.8,57.2,54.6,75,66,57,29.89,29.85,3,0,0,0.00
2013-10-12,84.9,75.7,65.5,68.7,65.9,61.5,87,72,53,29.90,29.85,5,1,0,0.00
2013-10-13,70.7,68.2,63.9,65.4,63.4,60.3,88,85,83,30.03,30.00,3,1,0,0.00
2013-10-14,65.8,61.8,57.6,54.1,53.2,52.6,85,74,66,30.09,30.04,5,3,0,0.12
2013-10-15,62.2,62.2,62.2,61.3,61.3,61.3,97,97,97,29.89,29.89,0,0,0,0.00
2013-10-17,63.3,60.7,56.7,56.6,55.4,54.0,96,83,74,29.65,29.57,4,1,0,0.00
2013-10-18,61.0,58.5,55.8,50.8,49.5,48.0,81,72,69,29.75,29.73,10,4,0,0.00
2013-10-20,55.6,52.5,48.7,48.8,46.6,45.0,87,81,77,29.79,29.76,6,3,0,0.00
2013-10-21,63.5,61.2,56.5,49.6,48.1,47.2,72,62,57,29.78,29.70,11,6,0,0.00
2013-10-22,47.1,47.1,47.1,41.6,41.6,41.6,81,81,81,29.76,29.76,2,2,0,0.00
2013-10-25,46.9,46.9,46.9,39.7,39.7,39.7,76,76,76,30.13,30.13,2,2,0,0.00
2013-10-28,53.6,51.5,50.4,47.9,46.2,44.8,84,82,80,30.13,30.10,4,1,0,0.00
2013-10-29,54.5,52.3,48.7,43.0,42.7,42.2,78,70,65,30.27,30.25,4,1,0,0.00
2013-10-30,70.0,62.4,55.8,49.6,48.1,45.5,72,60,46,30.05,29.95,5,1,0,0.00
2013-10-31,65.1,62.1,57.9,63.9,61.4,57.3,98,98,95,29.66,29.20,9,6,0,0.26
2013-11-1,60.4,55.8,52.9,59.8,52.8,47.9,98,90,82,29.49,29.10,9,5,0,0.29
2013-11-3,40.8,40.7,40.6,34.5,34.4,34.3,78,78,78,30.25,30.23,4,4,0,0.00
2013-11-4,39.2,39.2,39.2,27.3,27.3,27.3,62,62,62,30.43,30.43,2,2,0,0.00
2013-11-9,46.8,45.4,42.6,37.2,36.1,34.9,74,70,66,29.90,29.86,9,6,0,0.00
2013-11-14,41.4,39.8,38.5,28.6,27.6,27.0,63,61,60,30.04,30.03,9,7,0,0.00
2013-11-15,52.5,50.2,48.6,33.9,32.3,31.6,53,50,48,29.96,29.93,6,4,0,0.06
2013-11-16,59.5,57.3,52.2,50.5,49.5,46.9,82,75,72,30.04,29.93,8,4,0,0.00
2013-11-17,62.1,59.6,51.8,61.5,55.6,15.7,98,91,17,29.63,29.24,12,7,0,0.56
2013-11-18,56.1,47.6,45.7,51.0,42.3,40.4,83,82,79,29.58,29.36,11,4,0,0.00
2013-11-20,43.5,41.0,38.1,27.7,27.2,25.9,64,58,53,30.30,30.30,3,1,0,0.00
2013-11-29,43.2,42.8,42.3,32.6,32.2,31.8,66,66,66,30.46,30.46,0,0,0,0.00
2013-11-30,21.7,21.5,21.2,20.5,20.4,20.2,96,96,95,30.36,30.36,4,2,0,0.00
2013-12-3,32.2,25.4,22.5,31.7,24.9,22.0,98,98,98,29.81,29.76,0,0,0,0.00
2013-12-7,25.2,23.1,21.9,23.2,20.6,19.2,92,90,87,30.45,30.24,3,1,0,0.00
2013-12-8,21.9,19.8,17.1,19.2,18.2,16.6,98,93,87,30.45,30.38,3,0,0,0.00
2013-12-11,19.4,18.7,16.7,15.9,15.2,13.3,88,86,83,30.21,30.11,8,5,0,0.22
2013-12-12,17.1,15.0,12.4,13.3,10.0,6.2,98,82,62,30.25,30.04,11,2,0,0.00
2013-12-13,21.2,17.6,15.6,15.7,11.3,7.5,81,76,69,30.05,30.00,12,4,0,0.00
2013-12-16,17.8,10.8,0.3,17.1,10.2,-1.0,98,97,94,29.99,29.84,4,0,0,0.00
2013-12-17,25.2,20.6,14.0,24.7,20.0,13.3,98,98,94,29.87,29.74,6,2,0,0.00
2013-12-24,17.2,16.9,16.3,16.7,16.4,15.8,98,98,98,30.36,30.30,0,0,0,0.00
2013-12-25,18.0,12.9,9.1,15.7,11.9,8.4,98,96,87,30.35,30.28,3,0,0,0.00
2013-12-28,44.2,43.7,42.6,37.0,36.5,35.6,76,76,75,29.98,29.97,6,2,0,0.00
2013-12-30,17.8,15.5,14.4,16.1,13.4,11.5,98,91,83,30.07,29.99,2,0,0,0.02
2013-12-31,19.9,17.5,15.8,19.4,16.0,12.4,98,94,86,30.15,29.86,7,2,0,0.00
2014-1-1,19.8,17.2,16.3,19.3,16.7,15.8,98,98,98,30.20,30.08,6,0,0,0.00
2014-1-2,15.6,12.7,7.2,15.1,12.2,6.3,98,98,96,29.98,29.70,0,0,0,0.00